This is the latest recevied weather packets stored in our database for station/object MB7UUE. If no packets are shown the sender has not sent any weather packets the latest 10 day(s).
| Time | Temp. | Humidity | Pressure | Rain* | Wind** | Luminosity | Snow |
|---|---|---|---|---|---|---|---|
| 1778247191 | 18.89° C | 40% | 1016.6 hPa | 0 mm | - | - | - |
| 1778246051 | 18.89° C | 40% | 1016.6 hPa | 0 mm | - | - | - |
| 1778244912 | 18.89° C | 37% | 1016.9 hPa | 0 mm | - | - | - |
| 1778243772 | 18.33° C | 42% | 1016.9 hPa | 0 mm | - | - | - |
| 1778242632 | 18.33° C | 42% | 1017 hPa | 0 mm | - | - | - |
| 1778241491 | 18.33° C | 42% | 1017 hPa | 0 mm | - | - | - |
| 1778240352 | 18.33° C | 42% | 1016.8 hPa | 0 mm | - | - | - |
| 1778239211 | 17.78° C | 42% | 1017 hPa | 0 mm | - | - | - |
| 1778238072 | 17.22° C | 44% | 1017 hPa | 0 mm | - | - | - |
| 1778236933 | 17.22° C | 46% | 1017 hPa | 0 mm | - | - | - |
| 1778235791 | 17.22° C | 49% | 1017.1 hPa | 0 mm | - | - | - |
| 1778234651 | 17.22° C | 53% | 1017.1 hPa | 0 mm | - | - | - |
| 1778233511 | 17.22° C | 53% | 1017 hPa | 0 mm | - | - | - |
| 1778232372 | 16.11° C | 55% | 1017.1 hPa | 0 mm | - | - | - |
| 1778231232 | 16.11° C | 60% | 1017.1 hPa | 0 mm | - | - | - |
| 1778230092 | 15° C | 64% | 1017 hPa | 0 mm | - | - | - |
| 1778228951 | 15° C | 65% | 1017 hPa | 0 mm | - | - | - |
| 1778227812 | 15° C | 68% | 1017 hPa | 0 mm | - | - | - |
| 1778226671 | 14.44° C | 73% | 1017 hPa | 0 mm | - | - | - |
| 1778225532 | 13.33° C | 77% | 1017.1 hPa | 0 mm | - | - | - |
| 1778224392 | 13.33° C | 86% | 1017.1 hPa | 0 mm | - | - | - |
| 1778223251 | 12.22° C | 86% | 1017 hPa | 0 mm | - | - | - |
| 1778222111 | 11.11° C | 86% | 1016.9 hPa | 0 mm | - | - | - |
| 1778220972 | 9.44° C | 86% | 1016.8 hPa | 0 mm | - | - | - |
| 1778219832 | 8.89° C | 85% | 1016.7 hPa | 0 mm | - | - | - |
* Rain latest hour (hover to see other rain measurements)
** Current wind speed in m/s (hover to see current wind gust speed)